Theta_e
326 325 325 325 324 322 321 318 317 314 313 312 312 311 309 308 308 307 304 304 306 305 306 308 310 311 308 308 308 310 309 311 312 314 312 312 314 313 315 314 315 316 315 315 314 313 314
318 319 319 318 317 317 316 314 313 312 311 310 309 307 306 306 307 306 304 306 306 305 308 309 311 311 310 307 306 309 311 311 312 313 310 311 314 313 315 315 316 314 314 314 313 314 313
313 314 314 315 315 314 313 312 311 310 310 309 307 305 304 305 305 304 305 307 305 308 307 310 310 310 308 307 307 309 310 310 310 310 312 310 311 314 313 314 312 313 315 314 312 312 312
313 313 312 312 312 311 311 309 309 309 309 307 306 305 305 304 303 304 306 307 308 307 308 310 310 308 308 307 307 307 308 308 307 308 311 312 313 312 313 312 312 314 313 312 311 312 311
312 311 311 311 311 310 309 308 308 308 307 306 305 305 304 303 303 304 307 308 308 309 309 310 309 307 309 306 306 308 308 309 309 309 311 313 312 314 312 314 314 313 311 313 313 311 312
311 310 309 310 310 309 309 308 307 307 307 306 305 306 303 303 303 305 308 308 308 308 308 308 308 307 305 305 308 311 311 311 312 311 313 313 311 315 312 315 311 310 314 313 313 312 312
313 311 310 308 309 308 307 308 307 307 306 305 305 304 302 302 302 305 308 307 305 306 307 307 307 305 307 309 309 311 311 311 312 313 316 313 317 318 317 314 310 311 312 313 313 312 313
308 311 310 309 307 307 309 308 306 306 306 305 306 302 302 302 303 306 308 306 304 309 310 306 307 307 307 308 309 309 311 314 315 314 313 314 318 316 312 312 313 314 315 316 314 313 313
306 310 308 307 307 306 307 307 306 305 306 305 306 301 301 301 304 306 306 307 309 309 310 308 307 307 307 307 309 308 311 313 315 315 315 315 313 313 314 313 314 314 316 316 316 314 312
305 306 309 307 307 306 306 306 306 305 305 305 305 301 301 302 304 305 305 306 309 309 305 304 310 310 309 308 308 307 311 313 313 316 315 316 314 314 315 316 314 317 314 315 315 314 317
304 305 305 307 306 306 305 305 304 304 304 304 303 301 301 304 305 306 307 307 308 305 302 306 311 309 310 308 311 311 307 311 313 314 313 313 313 314 315 315 313 314 311 313 313 315 315
302 303 304 306 305 306 305 305 305 304 302 304 301 301 301 304 305 306 308 308 308 304 299 310 311 313 312 312 313 309 310 310 309 312 311 310 310 311 313 311 311 311 313 313 313 314 317
299 301 303 304 305 304 306 306 306 305 303 302 301 301 301 302 304 304 309 310 309 303 301 309 313 314 313 313 314 310 312 313 314 315 315 313 313 311 311 314 312 313 316 316 318 316 317
298 298 300 303 303 305 304 306 306 306 304 303 302 302 302 301 304 304 308 312 307 301 302 305 314 315 315 313 312 313 311 313 311 310 312 315 312 312 312 313 314 314 314 315 317 316 314
297 299 299 300 301 305 305 305 306 305 305 303 302 303 302 301 302 305 309 310 307 305 306 304 308 314 315 313 312 313 311 311 312 311 312 314 313 311 312 311 313 314 317 314 317 314 317
297 298 298 299 301 301 305 304 303 304 303 302 303 301 301 299 301 303 308 308 307 305 307 308 303 304 308 311 314 314 314 312 312 311 310 312 314 312 312 312 311 314 312 318 319 319 317
296 297 298 297 298 301 300 304 304 303 302 302 301 302 301 300 303 304 307 307 306 306 307 308 309 311 311 308 312 313 313 311 311 311 311 311 313 314 314 316 316 314 315 314 314 316 317
295 296 298 296 298 299 302 300 304 302 301 302 301 302 301 303 304 303 305 305 305 306 305 307 309 311 310 311 312 311 312 310 310 310 313 312 314 316 315 313 312 313 315 315 318 317 314
295 296 297 297 296 296 299 301 301 301 302 301 301 300 301 303 304 304 303 303 305 307 306 307 308 310 311 311 310 311 310 309 310 312 313 314 315 317 317 315 313 316 315 314 315 314 316
295 295 296 298 297 297 298 301 301 300 300 299 299 302 300 301 303 305 303 304 305 305 305 306 308 308 310 310 310 311 310 310 309 310 313 313 314 315 316 314 313 315 315 315 316 317 316
294 295 296 296 298 299 301 301 299 299 299 299 299 302 301 302 303 304 304 305 305 305 306 306 307 309 309 309 309 310 309 309 308 309 312 312 314 313 313 311 312 313 312 313 315 315 315
294 294 295 296 296 298 299 300 300 299 299 300 299 301 300 300 303 303 303 303 304 305 306 309 308 308 309 310 309 308 309 310 310 309 312 309 313 311 313 311 313 313 313 312 312 313 315
294 295 295 296 295 298 296 299 298 298 300 296 294 297 299 300 302 304 304 303 304 304 305 305 307 307 308 308 307 308 307 307 309 309 309 309 311 311 313 310 312 314 312 311 311 311 312
295 294 296 297 295 295 298 297 297 297 299 295 296 296 298 300 301 302 303 302 302 303 304 304 305 305 304 304 304 304 305 306 306 307 308 310 309 311 311 311 314 308 305 307 310 310 308
294 293 295 295 297 297 299 297 296 297 298 297 296 296 298 300 300 300 300 301 301 301 303 302 303 303 304 305 305 306 306 306 305 306 307 308 309 310 311 311 309 307 305 306 308 309 305
293 292 293 295 294 297 297 297 296 296 298 297 296 296 296 298 299 299 300 301 300 300 300 300 301 301 303 304 305 305 305 306 307 307 305 308 308 309 309 310 309 307 303 302 302 308 303
293 293 292 295 294 295 295 296 295 295 297 296 296 296 296 299 297 298 300 300 299 300 300 300 302 303 302 303 304 304 305 305 304 309 307 308 308 310 308 308 307 304 302 300 307 308 301
293 293 294 294 294 294 296 296 295 295 296 296 295 296 296 296 296 299 299 301 301 301 301 301 304 304 304 304 303 304 305 305 306 304 307 308 308 308 307 308 308 302 301 304 302 295 298
293 293 294 293 293 294 295 295 294 295 295 295 294 294 295 296 296 297 298 299 299 300 301 301 302 302 303 303 303 303 305 303 304 307 302 308 308 307 306 307 298 297 298 295 295 295 294
Wind_Speed
30 29 29 30 29 24 22 19 17 14 13 13 13 13 12 12 11 11 9 9 10 10 7 7 5 8 5 3 7 6 6 5 3 3 4 3 3 3 3 2 1 4 2 3 5 7 7
10 16 17 17 16 17 16 15 14 13 14 13 13 12 11 11 11 10 8 7 9 6 4 4 2 4 3 3 4 7 8 3 3 4 2 3 3 3 3 1 2 1 3 8 5 10 5
11 11 11 12 13 14 13 12 14 13 14 13 12 11 10 10 9 8 7 5 7 2 2 2 1 3 1 12 5 7 6 5 4 4 3 4 4 2 2 1 1 3 6 7 3 1 1
17 14 13 14 12 13 12 14 15 16 16 14 11 10 9 9 8 8 5 4 4 2 3 2 2 1 7 6 8 12 15 14 12 6 5 6 6 5 1 2 3 2 2 3 2 6 2
20 17 16 17 16 15 15 16 15 17 16 13 11 9 9 8 7 6 3 2 2 0 2 2 2 1 9 5 6 2 9 4 4 8 8 6 5 3 2 3 2 2 3 0 5 4 4
27 24 22 21 20 19 18 18 16 15 15 13 10 9 9 8 6 5 4 4 4 1 4 3 0 3 5 1 1 2 7 10 3 9 5 2 3 3 2 5 5 3 3 3 3 3 8
28 28 26 25 26 23 23 23 21 17 16 13 12 10 9 7 5 7 8 3 3 2 6 8 5 3 4 6 6 4 7 7 6 2 5 2 5 12 13 9 3 3 2 6 6 9 6
30 30 27 26 26 25 23 21 19 18 18 14 13 9 8 7 6 7 7 2 3 1 7 17 14 9 6 3 3 3 12 4 4 4 7 4 10 12 6 8 8 7 7 12 7 5 6
26 31 29 26 27 26 26 23 20 19 19 16 14 10 9 6 7 7 8 6 5 2 3 6 7 6 5 10 6 5 10 4 3 6 10 6 1 7 11 7 7 4 10 7 8 6 4
25 27 30 27 28 27 26 24 23 22 19 17 14 11 9 8 7 6 6 14 9 7 2 5 5 5 5 8 6 11 13 5 4 11 9 6 2 6 8 5 7 5 10 9 7 5 4
21 25 28 29 28 28 27 27 27 24 21 19 16 13 10 15 6 6 3 10 12 3 3 4 5 10 8 6 3 2 7 2 8 6 6 4 5 5 7 8 7 4 5 5 1 3 4
22 23 25 28 30 30 29 31 28 26 24 19 16 14 13 14 6 6 3 16 8 4 8 2 4 7 7 3 0 4 4 3 4 4 1 2 0 4 4 3 7 6 4 4 3 0 6
27 23 23 27 31 34 35 35 32 29 26 23 17 15 14 12 4 13 7 6 3 5 2 4 4 6 5 6 4 3 11 9 8 7 8 1 6 2 3 4 2 6 5 2 2 3 5
26 25 27 27 28 34 36 40 37 34 29 24 20 17 15 16 8 11 7 2 5 3 4 0 4 6 6 7 3 4 9 8 4 3 3 8 4 12 8 16 7 9 10 5 6 4 1
25 21 26 25 32 34 35 32 34 34 31 26 21 20 14 19 16 9 3 6 7 6 3 4 4 3 3 3 3 4 9 6 9 11 7 6 4 2 3 4 13 6 6 8 6 3 4
26 24 23 26 24 31 32 36 37 34 31 28 21 12 10 19 14 10 5 12 7 4 1 1 6 3 6 4 6 9 9 5 6 14 4 5 2 5 5 6 3 5 10 3 3 5 6
27 26 26 26 26 25 31 31 33 34 32 32 15 3 8 25 22 5 9 11 7 3 5 2 2 2 2 3 5 4 3 2 4 6 13 5 3 3 8 9 13 5 5 2 2 2 4
26 27 27 23 24 29 28 31 39 38 34 31 9 4 11 30 8 6 13 12 4 1 13 4 3 2 3 2 1 3 4 2 3 4 8 7 3 8 15 2 8 7 10 12 5 5 3
25 26 26 23 28 31 31 32 25 27 34 21 6 3 11 15 9 11 12 19 14 3 5 3 4 5 2 3 3 5 3 2 2 5 6 6 3 5 5 1 2 7 8 9 6 3 14
25 23 25 26 26 30 34 36 37 39 37 19 3 4 2 3 2 10 14 16 15 8 16 11 4 3 2 6 4 2 3 1 2 2 3 3 6 8 10 3 4 5 11 14 14 6 9
23 24 22 24 25 29 38 43 38 40 41 19 3 3 3 7 9 10 11 5 17 11 10 11 11 12 9 9 10 11 9 9 2 3 4 6 11 7 13 10 7 8 12 13 15 17 11
24 24 25 25 25 22 25 28 39 35 40 10 5 3 2 3 12 19 14 14 20 12 10 6 10 11 14 12 12 5 6 5 7 2 5 4 10 6 14 9 13 14 15 14 16 18 16
24 23 25 25 20 24 25 29 32 33 40 5 4 2 3 5 11 13 11 19 17 12 7 12 11 7 9 11 7 5 4 4 4 4 5 3 5 6 12 6 7 10 19 18 14 16 15
20 21 21 25 20 26 31 30 30 33 37 10 5 5 3 5 8 13 10 16 19 12 13 4 7 8 2 5 4 2 1 6 9 12 10 7 5 3 7 5 12 5 2 6 14 17 15
14 13 15 21 30 34 30 27 27 29 28 17 11 5 2 3 8 6 8 6 7 8 12 7 5 4 5 3 4 4 4 3 8 16 17 16 12 9 7 8 6 7 6 7 7 8 12
6 6 1 15 11 22 25 24 23 24 26 20 13 10 3 2 3 4 6 7 4 4 1 4 3 7 3 2 3 6 6 5 4 4 7 14 16 14 5 8 8 3 2 5 4 9 13
1 1 3 8 14 14 18 18 20 22 23 23 10 15 7 1 2 4 3 6 5 4 2 1 5 4 5 6 7 7 7 2 8 5 4 5 4 9 4 3 5 5 7 5 5 4 8
3 3 4 4 7 10 13 16 20 23 24 22 10 19 10 3 3 3 2 3 3 4 5 3 3 2 4 8 7 5 5 6 3 3 6 9 7 4 3 6 10 9 7 8 1 2 7
6 7 8 6 7 10 11 16 19 21 22 19 6 15 17 1 1 3 7 10 3 3 5 5 2 4 4 4 4 3 4 4 3 4 4 6 5 6 8 4 1 1 2 2 2 4 7
Wind_Direction
228 229 228 228 224 223 228 228 232 235 240 242 245 248 251 256 258 270 278 286 292 299 300 312 313 334 23 11 257 200 196 229 271 78 83 112 99 124 194 153 237 223 243 302 304 304 279
199 190 197 207 215 218 217 222 232 242 242 244 245 246 249 248 254 262 271 280 297 300 299 314 306 336 77 263 223 215 224 212 126 95 87 76 119 133 117 150 219 67 306 301 288 288 287
248 249 243 223 216 212 225 232 246 252 252 247 244 241 247 239 247 256 265 280 311 310 269 279 7 344 178 246 202 214 214 206 170 99 121 95 98 118 124 171 359 330 312 315 310 68 60
238 232 235 234 232 235 233 243 254 257 253 241 240 239 239 243 246 250 256 280 317 341 337 250 202 349 251 257 273 250 239 256 251 229 175 139 86 98 121 98 21 360 95 307 33 347 20
234 225 231 231 229 233 240 245 247 254 250 244 238 229 233 237 241 242 222 328 296 136 209 183 272 124 264 287 277 296 211 201 160 172 160 97 113 104 119 111 327 28 258 198 314 60 25
240 242 235 231 228 231 241 243 239 244 242 239 226 227 238 230 227 221 192 125 100 162 159 201 60 292 258 276 123 149 151 154 127 135 99 96 73 150 116 171 236 202 212 176 240 306 341
236 237 231 235 239 242 233 226 222 229 235 236 217 224 230 231 217 194 158 147 83 272 229 204 203 259 301 306 283 190 159 143 121 113 151 171 183 210 207 196 145 143 223 274 275 272 299
261 235 232 235 240 235 224 220 223 226 227 223 209 217 224 223 195 191 174 173 206 303 292 231 238 256 268 360 333 176 165 151 154 165 129 132 236 223 137 174 202 232 271 270 289 269 287
269 248 236 242 242 238 224 214 214 216 212 210 208 210 206 208 173 193 197 204 132 66 264 280 197 224 207 189 238 219 180 144 150 155 182 177 204 170 175 168 191 218 241 256 268 316 267
268 261 241 242 239 233 228 217 213 217 212 206 207 204 187 171 180 179 205 229 202 19 329 242 208 257 156 152 233 205 194 145 185 200 167 229 202 133 167 189 178 236 222 241 262 307 295
277 262 256 250 240 233 225 218 209 209 210 206 198 197 183 176 140 175 165 186 198 158 301 106 148 155 151 210 126 90 198 149 174 162 168 216 167 163 207 228 171 239 167 206 227 238 306
311 275 262 251 245 236 229 220 213 203 193 198 197 188 180 185 197 186 85 156 137 53 244 164 134 147 154 242 318 111 150 85 140 120 46 196 203 158 187 80 181 135 104 61 57 6 266
288 293 280 257 245 241 235 224 214 204 193 186 192 193 191 178 193 196 168 168 102 182 341 180 176 170 181 167 160 127 167 168 161 170 221 182 219 169 165 138 68 168 150 278 249 190 257
282 281 281 271 254 242 238 230 216 207 194 192 193 200 205 205 168 168 179 137 207 211 210 25 132 134 183 155 187 133 146 187 232 108 128 190 242 181 195 214 186 188 208 209 241 210 227
268 272 273 282 253 244 235 226 216 207 198 197 191 185 192 214 210 188 181 207 217 192 198 180 136 142 208 204 151 147 175 195 208 185 190 169 251 179 177 150 180 171 205 232 264 182 248
287 281 276 266 289 247 230 225 220 209 203 189 164 168 197 203 198 188 195 220 221 209 154 78 179 175 182 195 170 185 179 189 207 195 196 195 178 219 138 113 69 193 148 130 176 235 234
275 266 260 262 276 269 239 231 215 203 190 182 148 167 200 191 171 189 203 223 219 247 51 337 141 131 153 159 184 194 195 215 212 198 202 163 222 160 148 204 174 165 200 166 191 218 254
275 268 269 266 276 270 245 240 204 193 182 170 142 177 172 164 173 185 212 210 226 90 234 284 35 162 166 120 75 198 211 246 128 135 165 208 201 233 221 57 204 199 197 193 213 208 223
280 273 268 255 257 264 258 216 193 182 176 162 161 135 176 183 185 189 223 229 237 235 215 189 225 202 126 161 227 224 214 49 142 156 170 173 202 241 218 260 299 207 197 198 210 229 239
279 270 263 251 249 258 246 213 201 193 184 157 132 156 142 179 217 191 205 229 215 219 249 256 298 195 192 225 224 224 205 347 109 127 82 211 189 241 246 223 162 199 216 215 210 232 262
275 269 267 255 248 244 222 195 188 191 184 156 148 181 179 168 198 204 197 199 215 229 213 206 229 233 217 232 242 247 248 260 224 203 155 173 256 232 251 239 217 241 241 223 216 228 236
277 269 266 255 238 232 221 206 192 191 187 161 141 152 113 154 184 193 203 223 232 211 200 212 221 209 215 233 225 238 211 206 233 144 188 176 253 245 261 237 227 238 241 241 238 245 249
277 270 258 245 240 221 216 195 190 188 184 106 113 65 131 171 184 190 200 212 225 206 219 228 206 217 225 236 229 249 247 236 229 214 190 190 212 197 254 241 218 245 239 230 233 234 232
271 278 250 220 228 221 205 193 192 186 191 126 127 118 167 171 174 196 186 214 231 217 216 185 191 211 245 109 98 84 197 254 241 232 209 214 207 219 256 210 231 249 172 226 235 244 220
275 275 243 224 238 212 179 184 186 183 185 164 131 109 100 149 189 154 176 160 189 223 241 229 207 167 141 111 225 255 241 259 237 230 216 211 220 241 243 231 290 266 200 190 187 256 200
269 288 12 192 160 171 168 176 177 177 181 170 162 162 71 102 203 149 173 174 162 166 166 240 194 183 170 228 250 237 228 219 226 272 229 217 225 224 202 193 227 244 177 144 140 272 191
179 49 71 125 144 160 164 168 178 182 179 171 170 168 109 142 271 218 185 174 147 159 162 200 154 165 152 188 214 236 252 235 248 216 192 180 182 220 162 187 278 221 155 156 175 271 165
254 240 189 146 146 165 167 171 179 177 174 175 172 181 159 158 268 239 228 147 145 156 175 160 120 159 166 196 202 189 222 210 253 256 202 211 180 205 177 208 248 151 123 192 143 51 154
257 261 218 234 229 203 192 189 185 183 180 175 141 179 197 175 254 225 253 245 228 184 188 170 254 155 189 190 204 182 194 182 196 237 203 210 198 181 195 209 348 358 36 57 155 152 157